Location: Peterborough
(44.3091°N, 78.3197°W)
Time: 23:37:46
(UTC-04:00)

Vanguard 2 Rocket - Pass Details

Date: 28 March 2023
Orbit: 554 x 3314 km, 32.9° (Epoch: 02 June)

Event Time Altitude Azimuth Distance (km) Brightness Sun altitude
Rises 03:16:27 0° 265° (W) 5,792 - -35.9°
Reaches altitude 10° 03:22:59 10° 243° (WSW) 5,344 - -35.2°
Maximum altitude 03:29:50 14° 218° (SW) 5,451 - -34.4°
Drops below altitude 10° 03:37:36 10° 193° (SSW) 6,124 - -33.5°
Exits shadow 03:45:57 - 174° (S) 7,192 11.1 -32.4°
Sets 03:46:38 0° 173° (S) 7,288 11.2 -32.3°
